Regional Weather Roundup
Issued by NWS State College, PA

Home | Current Version | Previous Version | Graphics & Text | Print | Product List | Glossary On
Versions: 1 2 3 4 5 6 7 8 9 10 11 12 13 14 15 16 17 18 19 20 21 22 23 24 25 26 27 28 29 30 31 32 33 34 35 36 37 38 39 40 41 42 43 44 45 46 47 48 49 50
000
ASUS41 KCTP 212310
RWRCTP

REGIONAL WEATHER ROUNDUP
NATIONAL WEATHER SERVICE STATE COLLEGE PA
600 PM EST SUN DEC 21 2014

Note: "fair" indicates few or no clouds below 12,000 feet with no
significant weather and/or obstructions to visibility.

* = STATION THAT DOES NOT REPORT PRECIPITATION /E.G. RAIN...SNOW...ETC/
    THUNDER OR FOG.

PAZ002>004-007>009-013>016-020>023-029>032-220000-
WESTERN PENNSYLVANIA

CITY           SKY/WX    TMP DP  RH WIND       PRES   REMARKS
ERIE           CLOUDY    32  21  64 S6        30.28R
MEADVILLE      CLOUDY    30  21  69 VRB3      30.23S
FRANKLIN*      CLOUDY    28  19  69 SE5       30.25R
NEW CASTLE       N/A     30  22  72 CALM      30.27R
BEAVER COUNTY  NOT AVBL
BUTLER*        PTCLDY    28  21  74 E5        30.26S
PITTSBURGH INT PTCLDY    30  22  72 NE5       30.24R
PITTSBURGH     CLEAR     30  19  63 E5        30.23R
INDIANA*       CLEAR     28  23  80 CALM      30.29R
LATROBE        MOCLDY    28  23  80 N6        30.27R
WASHINGTON CO* NOT AVBL
$$

PAZ004>006-010>012-017>019-024>028-033>037-041-042-045-046-049>053-220000-
CENTRAL PENNSYLVANIA

CITY           SKY/WX    TMP DP  RH WIND       PRES   REMARKS
BRADFORD       CLOUDY    25  19  78 SE5       30.22R
DUBOIS         PTCLDY    27  19  72 CALM      30.22R
CLEARFIELD     CLEAR     27  19  72 E5        30.25S
JOHNSTOWN      CLEAR     26  19  74 E6        30.19R
ALTOONA        CLEAR     26  21  81 NE3       30.25R
STATE COLLEGE  CLOUDY    28  21  74 CALM      30.28R
WILLIAMSPORT   CLEAR     30  20  66 W5        30.31R
SELINSGROVE    CLEAR     26  20  77 CALM      30.33R
FT INDIANTOWN  CLEAR     31  21  67 CALM      30.32R
CAPITAL CITY   CLEAR     32  22  66 NE5       30.33R
HARRISBURG     MOCLDY    30  21  69 NE5       30.32R
YORK           CLEAR     29  21  72 NE5       30.30S
$$

PAZ038>040-043-044-047-048-054-055-060>062-067>071-220000-
EASTERN PENNSYLVANIA

CITY           SKY/WX    TMP DP  RH WIND       PRES   REMARKS
SCRANTON       CLOUDY    30  20  66 N7        30.29R
MOUNT POCONO   CLOUDY    26  19  74 N5        30.22R
ALLENTOWN      CLEAR     30  20  66 NW5       30.32R
QUAKERTOWN*    CLEAR     28  21  74 CALM      30.32R
READING        CLEAR     30  21  69 W3        30.32R
LANCASTER      CLEAR     30  22  72 N3        30.32R
COATESVILLE    CLEAR     30  25  80 NW3       30.31R
POTTSTOWN      CLEAR     29  20  69 NW3       30.34R
BLUE BELL      CLEAR     32  25  74 CALM      30.32R
DOYLESTOWN     CLOUDY    30  23  75 CALM      30.31R
WILLOW GROVE   NOT AVBL
NORTH PHILA    CLEAR     33  21  61 N3        30.35R
PHILADELPHIA   PTCLDY    37  21  52 NW8       30.34R
$$


USA.gov is the U.S. government's official web portal to all federal, state and local government web resources and services.